WAT5643 KMIA-MYGF

Flight info

Callsign WAT5643
Flight time 0h 54m
Altitude 3500
Route ZFP
Aircraft EC35/L-VGD/C

Departure

Time 2026-04-21 17:34
Airport Miami International Airport (KMIA)

Arrival

Time 2026-04-21 18:28
Airport Grand Bahama International Airport (MYGF)
Time Latitude Longitude Altitude Speed Heading
2026-04-21 17:23 25.80622 -80.29254 8 ft 0 kts 360°
2026-04-21 17:32 25.80630 -80.29245 54 ft 8 kts 39°
2026-04-21 17:33 25.80651 -80.29172 247 ft 16 kts 61°
2026-04-21 17:33 25.80697 -80.28996 431 ft 32 kts 63°
2026-04-21 17:33 25.80795 -80.28719 640 ft 44 kts 63°
2026-04-21 17:33 25.80918 -80.28400 892 ft 46 kts 66°
2026-04-21 17:34 25.81007 -80.28040 1110 ft 53 kts 73°
2026-04-21 17:34 25.81090 -80.27619 1332 ft 57 kts 73°
2026-04-21 17:34 25.81183 -80.27184 1557 ft 58 kts 73°
2026-04-21 17:34 25.81253 -80.26743 1772 ft 58 kts 76°
2026-04-21 17:35 25.81344 -80.26299 1993 ft 58 kts 71°
2026-04-21 17:35 25.81457 -80.25880 2210 ft 57 kts 70°
2026-04-21 17:35 25.81575 -80.25456 2414 ft 59 kts 69°
2026-04-21 17:35 25.81716 -80.24953 2449 ft 74 kts 68°
2026-04-21 17:36 25.81882 -80.24371 2457 ft 82 kts 68°
2026-04-21 17:36 25.82081 -80.23743 2454 ft 85 kts 63°
2026-04-21 17:36 25.82324 -80.23132 2455 ft 86 kts 63°
2026-04-21 17:36 25.82560 -80.22519 2459 ft 86 kts 64°
2026-04-21 17:37 25.82813 -80.21896 2460 ft 87 kts 62°
2026-04-21 17:37 25.83088 -80.21284 2461 ft 87 kts 61°
2026-04-21 17:37 25.83279 -80.20879 2462 ft 87 kts 60°
2026-04-21 17:37 25.83658 -80.20069 2460 ft 87 kts 61°
2026-04-21 17:38 25.83939 -80.19472 2462 ft 87 kts 60°
2026-04-21 17:38 25.84229 -80.18872 2463 ft 87 kts 58°
2026-04-21 17:38 25.84525 -80.18305 2581 ft 84 kts 59°
2026-04-21 17:38 25.84838 -80.17728 2696 ft 88 kts 58°
2026-04-21 17:39 25.85167 -80.17141 2814 ft 89 kts 58°
2026-04-21 17:39 25.85493 -80.16559 2928 ft 89 kts 58°
2026-04-21 17:39 25.85832 -80.15953 2968 ft 97 kts 58°
2026-04-21 17:39 25.86208 -80.15280 2960 ft 105 kts 58°
2026-04-21 17:40 25.86601 -80.14575 2961 ft 107 kts 58°
2026-04-21 17:40 25.86990 -80.13867 2963 ft 107 kts 58°
2026-04-21 17:40 25.87373 -80.13152 2964 ft 107 kts 59°
2026-04-21 17:40 25.87744 -80.12445 2966 ft 107 kts 59°
2026-04-21 17:41 25.88097 -80.11710 2967 ft 107 kts 61°
2026-04-21 17:41 25.88444 -80.10979 2967 ft 107 kts 61°
2026-04-21 17:41 25.88795 -80.10234 2966 ft 107 kts 61°
2026-04-21 17:41 25.89143 -80.09495 2964 ft 107 kts 61°
2026-04-21 17:42 25.89494 -80.08760 2962 ft 107 kts 61°
2026-04-21 17:42 25.89841 -80.08024 2961 ft 107 kts 61°
2026-04-21 17:42 25.90185 -80.07299 2961 ft 107 kts 61°
2026-04-21 17:42 25.90542 -80.06552 2960 ft 108 kts 61°
2026-04-21 17:43 25.90893 -80.05820 2962 ft 107 kts 60°
2026-04-21 17:43 25.91243 -80.05088 2963 ft 107 kts 61°
2026-04-21 17:43 25.91594 -80.04351 2963 ft 108 kts 61°
2026-04-21 17:43 25.91948 -80.03612 2965 ft 108 kts 61°
2026-04-21 17:44 25.92302 -80.02879 2966 ft 108 kts 61°
2026-04-21 17:44 25.92654 -80.02142 2968 ft 107 kts 60°
2026-04-21 17:44 25.93000 -80.01413 2968 ft 107 kts 61°
2026-04-21 17:44 25.93357 -80.00669 2967 ft 108 kts 61°
2026-04-21 17:45 25.93710 -79.99931 2964 ft 108 kts 61°
2026-04-21 17:45 25.94062 -79.99195 2963 ft 108 kts 61°
2026-04-21 17:45 25.94416 -79.98450 2963 ft 108 kts 61°
2026-04-21 17:45 25.94767 -79.97712 2964 ft 109 kts 62°
2026-04-21 17:46 25.95132 -79.96953 2965 ft 110 kts 61°
2026-04-21 17:46 25.95491 -79.96197 2963 ft 111 kts 61°
2026-04-21 17:46 25.95850 -79.95442 2960 ft 111 kts 61°
2026-04-21 17:46 25.96213 -79.94682 2947 ft 110 kts 61°
2026-04-21 17:47 25.96569 -79.93931 2953 ft 110 kts 61°
2026-04-21 17:47 25.96927 -79.93180 2960 ft 110 kts 61°
2026-04-21 17:47 25.97290 -79.92416 2955 ft 110 kts 60°
2026-04-21 17:47 25.97647 -79.91666 2960 ft 109 kts 61°
2026-04-21 17:48 25.97883 -79.91176 2962 ft 110 kts 61°
2026-04-21 17:48 25.98366 -79.90173 2967 ft 110 kts 61°
2026-04-21 17:48 25.98727 -79.89415 2973 ft 111 kts 61°
2026-04-21 17:48 25.99093 -79.88654 2966 ft 112 kts 61°
2026-04-21 17:49 25.99457 -79.87897 2959 ft 111 kts 60°
2026-04-21 17:49 25.99824 -79.87134 2959 ft 111 kts 61°
2026-04-21 17:49 26.00185 -79.86375 2959 ft 110 kts 61°
2026-04-21 17:49 26.00545 -79.85626 2958 ft 110 kts 61°
2026-04-21 17:50 26.00909 -79.84872 2955 ft 111 kts 64°
2026-04-21 17:50 26.01297 -79.84111 2951 ft 111 kts 60°
2026-04-21 17:50 26.01666 -79.83366 2943 ft 112 kts 60°
2026-04-21 17:50 26.02046 -79.82608 2953 ft 111 kts 60°
2026-04-21 17:51 26.02415 -79.81866 2953 ft 111 kts 60°
2026-04-21 17:51 26.02799 -79.81113 2941 ft 113 kts 62°
2026-04-21 17:51 26.03196 -79.80351 2948 ft 112 kts 59°
2026-04-21 17:51 26.03560 -79.79589 2953 ft 111 kts 60°
2026-04-21 17:52 26.03923 -79.78838 2953 ft 110 kts 60°
2026-04-21 17:52 26.04285 -79.78090 2958 ft 110 kts 60°
2026-04-21 17:52 26.04650 -79.77335 2955 ft 110 kts 60°
2026-04-21 17:52 26.05018 -79.76582 2955 ft 111 kts 60°
2026-04-21 17:53 26.05395 -79.75826 2954 ft 110 kts 60°
2026-04-21 17:53 26.05765 -79.75079 2952 ft 110 kts 60°
2026-04-21 17:53 26.06135 -79.74322 2950 ft 110 kts 60°
2026-04-21 17:53 26.06490 -79.73567 2950 ft 111 kts 61°
2026-04-21 17:54 26.06851 -79.72807 2947 ft 110 kts 61°
2026-04-21 17:54 26.07209 -79.72053 2949 ft 110 kts 61°
2026-04-21 17:54 26.07568 -79.71298 2949 ft 110 kts 61°
2026-04-21 17:54 26.07927 -79.70541 2947 ft 110 kts 61°
2026-04-21 17:55 26.08287 -79.69785 2950 ft 110 kts 61°
2026-04-21 17:55 26.08646 -79.69029 2949 ft 110 kts 61°
2026-04-21 17:55 26.09008 -79.68269 2951 ft 110 kts 61°
2026-04-21 17:55 26.09366 -79.67516 2954 ft 111 kts 60°
2026-04-21 17:56 26.09725 -79.66760 2956 ft 111 kts 61°
2026-04-21 17:56 26.10087 -79.66000 2958 ft 110 kts 61°
2026-04-21 17:56 26.10448 -79.65245 2963 ft 110 kts 61°
2026-04-21 17:56 26.10813 -79.64481 2964 ft 111 kts 61°
2026-04-21 17:57 26.11179 -79.63720 2962 ft 111 kts 61°
2026-04-21 17:57 26.11538 -79.62966 2960 ft 111 kts 61°
2026-04-21 17:57 26.11900 -79.62206 2959 ft 111 kts 60°
2026-04-21 17:57 26.12264 -79.61437 2961 ft 111 kts 61°
2026-04-21 17:58 26.12623 -79.60685 2961 ft 111 kts 61°
2026-04-21 17:58 26.12989 -79.59921 2961 ft 111 kts 60°
2026-04-21 17:58 26.13352 -79.59160 2959 ft 111 kts 61°
2026-04-21 17:58 26.13716 -79.58399 2959 ft 111 kts 61°
2026-04-21 17:59 26.14077 -79.57643 2959 ft 111 kts 60°
2026-04-21 17:59 26.14441 -79.56881 2959 ft 111 kts 60°
2026-04-21 17:59 26.14806 -79.56115 2959 ft 111 kts 60°
2026-04-21 17:59 26.15167 -79.55356 2959 ft 110 kts 60°
2026-04-21 18:00 26.15529 -79.54600 2959 ft 111 kts 60°
2026-04-21 18:00 26.15891 -79.53839 2960 ft 111 kts 61°
2026-04-21 18:00 26.16258 -79.53075 2960 ft 111 kts 61°
2026-04-21 18:00 26.16620 -79.52319 2962 ft 111 kts 61°
2026-04-21 18:01 26.16987 -79.51554 2964 ft 111 kts 60°
2026-04-21 18:01 26.17352 -79.50793 2966 ft 111 kts 60°
2026-04-21 18:01 26.17717 -79.50028 2966 ft 112 kts 60°
2026-04-21 18:01 26.18083 -79.49268 2967 ft 112 kts 60°
2026-04-21 18:02 26.18450 -79.48503 2968 ft 112 kts 61°
2026-04-21 18:02 26.18817 -79.47742 2968 ft 111 kts 61°
2026-04-21 18:02 26.19187 -79.46974 2967 ft 111 kts 60°
2026-04-21 18:02 26.19545 -79.46216 2966 ft 111 kts 62°
2026-04-21 18:03 26.19896 -79.45445 2966 ft 111 kts 62°
2026-04-21 18:03 26.20248 -79.44669 2966 ft 111 kts 62°
2026-04-21 18:03 26.20598 -79.43906 2967 ft 111 kts 62°
2026-04-21 18:03 26.20950 -79.43134 2967 ft 111 kts 62°
2026-04-21 18:04 26.21307 -79.42366 2964 ft 111 kts 61°
2026-04-21 18:04 26.21674 -79.41603 2967 ft 111 kts 61°
2026-04-21 18:04 26.22041 -79.40844 2966 ft 111 kts 60°
2026-04-21 18:04 26.22411 -79.40073 2968 ft 111 kts 61°
2026-04-21 18:05 26.22775 -79.39314 2970 ft 111 kts 60°
2026-04-21 18:05 26.23139 -79.38559 2970 ft 111 kts 61°
2026-04-21 18:05 26.23509 -79.37786 2968 ft 112 kts 61°
2026-04-21 18:05 26.23873 -79.37029 2967 ft 111 kts 60°
2026-04-21 18:06 26.24243 -79.36259 2968 ft 112 kts 61°
2026-04-21 18:06 26.24613 -79.35487 2965 ft 112 kts 61°
2026-04-21 18:06 26.24977 -79.34727 2966 ft 111 kts 61°
2026-04-21 18:06 26.25344 -79.33960 2967 ft 111 kts 61°
2026-04-21 18:07 26.25705 -79.33205 2973 ft 112 kts 61°
2026-04-21 18:07 26.26076 -79.32433 2972 ft 112 kts 61°
2026-04-21 18:07 26.26441 -79.31670 2974 ft 112 kts 61°
2026-04-21 18:07 26.26813 -79.30899 2974 ft 112 kts 61°
2026-04-21 18:08 26.27185 -79.30129 2974 ft 112 kts 61°
2026-04-21 18:08 26.27552 -79.29366 2975 ft 112 kts 61°
2026-04-21 18:08 26.27922 -79.28602 2976 ft 112 kts 61°
2026-04-21 18:08 26.28292 -79.27830 2975 ft 112 kts 61°
2026-04-21 18:09 26.28658 -79.27065 2976 ft 112 kts 61°
2026-04-21 18:09 26.29029 -79.26291 2975 ft 112 kts 61°
2026-04-21 18:09 26.29396 -79.25525 2974 ft 112 kts 61°
2026-04-21 18:09 26.29763 -79.24760 2975 ft 113 kts 61°
2026-04-21 18:10 26.30138 -79.23981 2973 ft 112 kts 60°
2026-04-21 18:10 26.30504 -79.23221 2971 ft 113 kts 61°
2026-04-21 18:10 26.30874 -79.22447 2973 ft 112 kts 61°
2026-04-21 18:10 26.31243 -79.21683 2974 ft 112 kts 61°
2026-04-21 18:11 26.31611 -79.20917 2974 ft 112 kts 61°
2026-04-21 18:11 26.31986 -79.20142 2978 ft 113 kts 61°
2026-04-21 18:11 26.32358 -79.19373 2979 ft 112 kts 61°
2026-04-21 18:11 26.32728 -79.18608 2977 ft 112 kts 61°
2026-04-21 18:12 26.33092 -79.17850 2975 ft 112 kts 61°
2026-04-21 18:12 26.33455 -79.17071 2975 ft 112 kts 62°
2026-04-21 18:12 26.33811 -79.16296 2976 ft 112 kts 62°
2026-04-21 18:12 26.34166 -79.15514 2979 ft 112 kts 62°
2026-04-21 18:13 26.34524 -79.14737 2978 ft 112 kts 62°
2026-04-21 18:13 26.34880 -79.13960 2976 ft 112 kts 62°
2026-04-21 18:13 26.35235 -79.13193 2980 ft 112 kts 62°
2026-04-21 18:13 26.35599 -79.12406 2980 ft 113 kts 62°
2026-04-21 18:14 26.36307 -79.10861 2980 ft 112 kts 62°
2026-04-21 18:14 26.36669 -79.10083 2980 ft 113 kts 62°
2026-04-21 18:14 26.37028 -79.09304 2977 ft 113 kts 61°
2026-04-21 18:15 26.37390 -79.08520 2977 ft 112 kts 62°
2026-04-21 18:15 26.37743 -79.07755 2975 ft 112 kts 62°
2026-04-21 18:15 26.38099 -79.06975 2977 ft 112 kts 62°
2026-04-21 18:15 26.38455 -79.06203 2978 ft 112 kts 62°
2026-04-21 18:16 26.38815 -79.05424 2979 ft 112 kts 62°
2026-04-21 18:16 26.39173 -79.04650 2979 ft 112 kts 62°
2026-04-21 18:16 26.39530 -79.03877 2983 ft 112 kts 61°
2026-04-21 18:16 26.39892 -79.03095 2979 ft 112 kts 62°
2026-04-21 18:17 26.40249 -79.02324 2979 ft 112 kts 62°
2026-04-21 18:17 26.40612 -79.01543 2981 ft 112 kts 62°
2026-04-21 18:17 26.40969 -79.00774 2980 ft 112 kts 62°
2026-04-21 18:17 26.41330 -78.99996 2978 ft 113 kts 62°
2026-04-21 18:18 26.41692 -78.99216 2980 ft 112 kts 62°
2026-04-21 18:18 26.42051 -78.98438 2979 ft 113 kts 62°
2026-04-21 18:18 26.42410 -78.97659 2981 ft 112 kts 62°
2026-04-21 18:18 26.42771 -78.96875 2983 ft 113 kts 62°
2026-04-21 18:19 26.43127 -78.96105 2984 ft 112 kts 62°
2026-04-21 18:19 26.43487 -78.95325 2986 ft 112 kts 62°
2026-04-21 18:19 26.43848 -78.94550 2984 ft 112 kts 62°
2026-04-21 18:19 26.44202 -78.93782 2987 ft 112 kts 62°
2026-04-21 18:20 26.44555 -78.93007 2986 ft 112 kts 62°
2026-04-21 18:20 26.44906 -78.92232 2990 ft 112 kts 62°
2026-04-21 18:20 26.45259 -78.91444 2987 ft 112 kts 62°
2026-04-21 18:20 26.45603 -78.90664 2986 ft 111 kts 62°
2026-04-21 18:21 26.45962 -78.89906 2988 ft 113 kts 62°
2026-04-21 18:21 26.46318 -78.89123 2944 ft 114 kts 62°
2026-04-21 18:21 26.46684 -78.88326 2818 ft 118 kts 61°
2026-04-21 18:21 26.47067 -78.87515 2694 ft 118 kts 60°
2026-04-21 18:22 26.47450 -78.86702 2569 ft 117 kts 61°
2026-04-21 18:22 26.47826 -78.85897 2446 ft 118 kts 60°
2026-04-21 18:22 26.48215 -78.85075 2323 ft 118 kts 60°
2026-04-21 18:22 26.48597 -78.84271 2200 ft 118 kts 60°
2026-04-21 18:23 26.48988 -78.83459 2080 ft 117 kts 60°
2026-04-21 18:23 26.49372 -78.82661 1959 ft 117 kts 60°
2026-04-21 18:23 26.49762 -78.81855 1836 ft 117 kts 60°
2026-04-21 18:23 26.50145 -78.81055 1702 ft 118 kts 60°
2026-04-21 18:24 26.50533 -78.80241 1577 ft 116 kts 60°
2026-04-21 18:24 26.50907 -78.79452 1453 ft 115 kts 60°
2026-04-21 18:24 26.51278 -78.78651 1330 ft 115 kts 60°
2026-04-21 18:24 26.51647 -78.77867 1169 ft 113 kts 59°
2026-04-21 18:25 26.51998 -78.77111 1051 ft 106 kts 59°
2026-04-21 18:25 26.52339 -78.76389 898 ft 102 kts 59°
2026-04-21 18:25 26.52649 -78.75712 779 ft 95 kts 59°
2026-04-21 18:25 26.52949 -78.75065 643 ft 90 kts 57°
2026-04-21 18:26 26.53309 -78.74519 548 ft 83 kts 47°
2026-04-21 18:26 26.53660 -78.74043 489 ft 74 kts 54°
2026-04-21 18:26 26.53918 -78.73563 473 ft 70 kts 58°
2026-04-21 18:26 26.54117 -78.73086 485 ft 65 kts 58°
2026-04-21 18:27 26.54321 -78.72640 423 ft 61 kts 55°
2026-04-21 18:27 26.54526 -78.72244 327 ft 58 kts 52°
2026-04-21 18:27 26.54740 -78.71862 217 ft 56 kts 65°
2026-04-21 18:27 26.54851 -78.71448 178 ft 50 kts 63°
2026-04-21 18:28 26.54883 -78.71124 120 ft 35 kts 93°
2026-04-21 18:28 26.54859 -78.70910 84 ft 20 kts 76°
2026-04-21 18:28 26.54855 -78.70777 53 ft 14 kts 75°
2026-04-21 18:28 26.54859 -78.70693 34 ft 7 kts 71°
2026-04-21 18:29 26.54866 -78.70670 17 ft 0 kts 76°
2026-04-21 18:31 26.54862 -78.70656 106 ft 12 kts 40°
2026-04-21 18:31 26.55017 -78.70607 357 ft 36 kts 30°
2026-04-21 18:32 26.55255 -78.70461 649 ft 45 kts 47°
2026-04-21 18:32 26.55515 -78.70205 943 ft 54 kts 46°
2026-04-21 18:32 26.55808 -78.69889 1232 ft 61 kts 47°
2026-04-21 18:32 26.56167 -78.69598 1445 ft 73 kts 31°
2026-04-21 18:33 26.56708 -78.69376 1486 ft 90 kts 25°
2026-04-21 18:33 26.57334 -78.69157 1506 ft 97 kts 26°
2026-04-21 18:33 26.58025 -78.68918 1493 ft 107 kts 24°
2026-04-21 18:33 26.58749 -78.68659 1491 ft 110 kts 25°
2026-04-21 18:34 26.59478 -78.68401 1487 ft 109 kts 24°
2026-04-21 18:34 26.60214 -78.68138 1488 ft 109 kts 24°
2026-04-21 18:34 26.60943 -78.67877 1492 ft 109 kts 24°
2026-04-21 18:34 26.61667 -78.67619 1491 ft 109 kts 24°
2026-04-21 18:35 26.62156 -78.67439 1489 ft 110 kts 24°
2026-04-21 18:35 26.63140 -78.67078 1496 ft 110 kts 24°
2026-04-21 18:35 26.63866 -78.66805 1495 ft 110 kts 26°
2026-04-21 18:35 26.64587 -78.66500 1489 ft 110 kts 27°
2026-04-21 18:36 26.65304 -78.66186 1492 ft 109 kts 27°
2026-04-21 18:36 26.66014 -78.65876 1494 ft 109 kts 27°
2026-04-21 18:36 26.66725 -78.65562 1489 ft 109 kts 28°
2026-04-21 18:36 26.67432 -78.65256 1491 ft 109 kts 27°
2026-04-21 18:37 26.68135 -78.64951 1488 ft 108 kts 27°
2026-04-21 18:37 26.68839 -78.64637 1491 ft 108 kts 27°
2026-04-21 18:37 26.69549 -78.64323 1493 ft 108 kts 27°
2026-04-21 18:37 26.70251 -78.64006 1487 ft 110 kts 28°
2026-04-21 18:38 26.70969 -78.63686 1493 ft 110 kts 27°
2026-04-21 18:38 26.71686 -78.63367 1490 ft 110 kts 27°
2026-04-21 18:38 26.72394 -78.63056 1485 ft 110 kts 27°
2026-04-21 18:38 26.73111 -78.62734 1493 ft 110 kts 27°
2026-04-21 18:39 26.73820 -78.62422 1490 ft 109 kts 27°
2026-04-21 18:39 26.74530 -78.62118 1489 ft 109 kts 27°
2026-04-21 18:39 26.75246 -78.61809 1493 ft 110 kts 27°
2026-04-21 18:39 26.75969 -78.61491 1494 ft 110 kts 27°
2026-04-21 18:40 26.76675 -78.61177 1490 ft 109 kts 27°
2026-04-21 18:40 26.77390 -78.60861 1490 ft 109 kts 27°
2026-04-21 18:40 26.77861 -78.60655 1491 ft 109 kts 27°
2026-04-21 18:40 26.78808 -78.60244 1487 ft 110 kts 27°
2026-04-21 18:41 26.79521 -78.59934 1486 ft 109 kts 27°
2026-04-21 18:41 26.80243 -78.59618 1486 ft 110 kts 27°
2026-04-21 18:41 26.80961 -78.59300 1482 ft 110 kts 27°
2026-04-21 18:41 26.81667 -78.58993 1483 ft 109 kts 26°
2026-04-21 18:42 26.82397 -78.58705 1489 ft 110 kts 25°
2026-04-21 18:42 26.83124 -78.58423 1486 ft 110 kts 25°
2026-04-21 18:42 26.83861 -78.58160 1481 ft 111 kts 23°
2026-04-21 18:42 26.84603 -78.57909 1485 ft 110 kts 23°
2026-04-21 18:43 26.85335 -78.57667 1488 ft 111 kts 23°
2026-04-21 18:43 26.86082 -78.57419 1491 ft 110 kts 23°
2026-04-21 18:43 26.86823 -78.57172 1489 ft 111 kts 23°
2026-04-21 18:43 26.87559 -78.56928 1493 ft 111 kts 24°
2026-04-21 18:44 26.88293 -78.56654 1488 ft 110 kts 25°
2026-04-21 18:44 26.89021 -78.56368 1491 ft 110 kts 25°
2026-04-21 18:44 26.89748 -78.56085 1487 ft 110 kts 25°
2026-04-21 18:44 26.90480 -78.55801 1484 ft 110 kts 25°
2026-04-21 18:45 26.91206 -78.55522 1484 ft 109 kts 25°
2026-04-21 18:45 26.91932 -78.55246 1485 ft 110 kts 25°
2026-04-21 18:45 26.92665 -78.54964 1487 ft 110 kts 25°
2026-04-21 18:45 26.93390 -78.54686 1488 ft 110 kts 25°
2026-04-21 18:46 26.94117 -78.54382 1487 ft 110 kts 28°
2026-04-21 18:46 26.94823 -78.54053 1488 ft 110 kts 28°
2026-04-21 18:46 26.95531 -78.53728 1485 ft 110 kts 27°
2026-04-21 18:46 26.96245 -78.53416 1488 ft 110 kts 27°
2026-04-21 18:47 26.96960 -78.53099 1484 ft 110 kts 27°
2026-04-21 18:47 26.97679 -78.52780 1486 ft 110 kts 27°
2026-04-21 18:47 26.98393 -78.52468 1488 ft 109 kts 27°
2026-04-21 18:47 26.99105 -78.52161 1489 ft 110 kts 27°
2026-04-21 18:48 26.99818 -78.51852 1492 ft 110 kts 27°
2026-04-21 18:48 27.00543 -78.51533 1491 ft 111 kts 27°
2026-04-21 18:48 27.01257 -78.51220 1489 ft 110 kts 27°
2026-04-21 18:48 27.01984 -78.50899 1487 ft 110 kts 26°
2026-04-21 18:49 27.02695 -78.50584 1490 ft 110 kts 27°
2026-04-21 18:49 27.03414 -78.50270 1490 ft 110 kts 27°
2026-04-21 18:49 27.03896 -78.50059 1489 ft 111 kts 27°
2026-04-21 18:49 27.04852 -78.49638 1491 ft 110 kts 27°
2026-04-21 18:50 27.05565 -78.49326 1495 ft 110 kts 27°
2026-04-21 18:50 27.06288 -78.49010 1489 ft 111 kts 27°
2026-04-21 18:50 27.07005 -78.48695 1490 ft 110 kts 27°
2026-04-21 18:50 27.07733 -78.48377 1486 ft 110 kts 27°
2026-04-21 18:51 27.08448 -78.48064 1484 ft 110 kts 27°
2026-04-21 18:51 27.09157 -78.47756 1485 ft 110 kts 27°
2026-04-21 18:51 27.09872 -78.47442 1486 ft 110 kts 27°
2026-04-21 18:51 27.10589 -78.47131 1492 ft 110 kts 27°
2026-04-21 18:52 27.11313 -78.46820 1493 ft 110 kts 27°
2026-04-21 18:52 27.12029 -78.46511 1494 ft 110 kts 26°
2026-04-21 18:52 27.12753 -78.46193 1492 ft 111 kts 27°
2026-04-21 18:52 27.13472 -78.45877 1490 ft 111 kts 27°
2026-04-21 18:53 27.14199 -78.45561 1496 ft 111 kts 27°
2026-04-21 18:53 27.14918 -78.45245 1494 ft 110 kts 26°
2026-04-21 18:53 27.15634 -78.44930 1490 ft 110 kts 27°
2026-04-21 18:53 27.16356 -78.44614 1495 ft 110 kts 27°
2026-04-21 18:54 27.17078 -78.44297 1492 ft 110 kts 27°
2026-04-21 18:54 27.17804 -78.43979 1412 ft 115 kts 26°
2026-04-21 18:54 27.18557 -78.43641 1288 ft 117 kts 27°
2026-04-21 18:54 27.19327 -78.43297 1161 ft 118 kts 26°
2026-04-21 18:55 27.19837 -78.43069 1081 ft 118 kts 26°
2026-04-21 18:55 27.20860 -78.42608 917 ft 118 kts 26°
2026-04-21 18:55 27.21623 -78.42260 788 ft 118 kts 26°
2026-04-21 18:55 27.22385 -78.41911 667 ft 118 kts 27°
2026-04-21 18:56 27.23148 -78.41563 543 ft 118 kts 27°
2026-04-21 18:56 27.23889 -78.41231 346 ft 102 kts 24°
2026-04-21 18:56 27.24439 -78.40992 375 ft 70 kts 25°
2026-04-21 18:56 27.24855 -78.40855 394 ft 58 kts 19°
2026-04-21 18:57 27.25248 -78.40794 364 ft 55 kts 18°
2026-04-21 18:57 27.25601 -78.40748 243 ft 46 kts 43°
2026-04-21 18:57 27.25852 -78.40593 129 ft 31 kts 65°
2026-04-21 18:57 27.25958 -78.40463 84 ft 18 kts 72°
2026-04-21 18:58 27.25979 -78.40348 42 ft 10 kts 40°
2026-04-21 18:58 27.25987 -78.40325 5 ft 0 kts 35°
2026-04-21 19:00 27.25986 -78.40319 17 ft 5 kts 59°
2026-04-21 19:00 27.25991 -78.40147 47 ft 40 kts 91°
2026-04-21 19:00 27.25912 -78.39728 95 ft 68 kts 109°
2026-04-21 19:01 27.25532 -78.39320 202 ft 77 kts 115°
2026-04-21 19:01 27.25191 -78.38822 351 ft 84 kts 112°
2026-04-21 19:01 27.24839 -78.38277 475 ft 87 kts 113°
2026-04-21 19:01 27.24477 -78.37711 597 ft 89 kts 112°
2026-04-21 19:02 27.24111 -78.37137 716 ft 90 kts 112°
2026-04-21 19:02 27.23743 -78.36563 836 ft 90 kts 112°
2026-04-21 19:02 27.23392 -78.35985 962 ft 89 kts 109°
2026-04-21 19:02 27.23087 -78.35391 1087 ft 87 kts 104°
2026-04-21 19:03 27.22848 -78.34765 1219 ft 85 kts 98°
2026-04-21 19:03 27.22638 -78.34140 1361 ft 88 kts 101°
2026-04-21 19:03 27.22412 -78.33470 1473 ft 95 kts 100°
2026-04-21 19:03 27.22178 -78.32736 1493 ft 102 kts 100°
2026-04-21 19:04 27.21940 -78.31966 1499 ft 106 kts 99°
2026-04-21 19:04 27.21694 -78.31176 1500 ft 107 kts 100°
2026-04-21 19:04 27.21449 -78.30373 1494 ft 108 kts 99°